Tracking 17857 objects as of 1-October-2016
HD Live streaming from Space Station
objects crossing your sky now

IRIDIUM 33 DEB

Track IRIDIUM 33 DEB now!
10-day predictions


NORAD ID: 34150
Int'l Code: 1997-051ED
Perigee: 672.8 km
Apogee: 785.0 km
Inclination: 86.5 °
Period: 99.2 minutes
Semi major axis: 7099 km
RCS: 0.0227 m2 (small)
Launch date: September 14, 1997
Source: United States (US)
Launch site: TYURATAM MISSILE AND SPACE COMPLEX (TTMTR)

Note: This is SATELLITE DEBRIS
Your satellite tracking list
Your tracking list is empty





NASA's NSSDC Master Catalog

Two Line Element Set (TLE):
1 34150U 97051ED  16274.23975788  .00006605  00000-0  15927-2 0  9997
2 34150  86.4803  75.7424 0079015  74.8802  45.0100 14.51176927398591
Source of the keplerian elements: AFSPC

N2YO: 725